Content
SEND FEEDBACK

Daily
Averages
Monthly
Summary
United States of America

BOILING SPRING LAKES, NORTH CAROLINA


Home > North America > United States > North Carolina
Elevation: 20 feet     Latitude: 34 00N     Longitude: 078 01W

WEATHER
 
SELECT A DAY
Number of Records: 136,443;   Date Range: 8/21/01 - 7/29/14
 
SHARE

PRINT THIS DATA

[ ← Previous Day ]
WEATHER ALMANAC - MARCH 23, 2013
[ Next Day → ]
[ °C ]   °F
Weather ElementAverageHighLow
Temperature43.7 °F50.7 °F (11:15 am)35.1 °F (6:55 am)
Dewpoint33.9 °F40.5 °F (8:35 pm)25.2 °F (2:35 am)
Humidity70.1 %90 % (9:55 pm)39 % (9:55 am)
Barometer30.01 in30.07 in (11:15 am)29.92 in (11:35 pm)
Wind Speed1.9 mph9.2 mph (1:55 pm)
Weather ElementAverage
Visibility9.8 mi
Wind DirectionENE (58.4 °)

Weather ElementTotal
Precipitation0.07 in
Heating Degree Days22.1 (Base 65)
Averaged from 70 records on March 23, 2013
WEATHER CONDITIONS BREAKOUT
WIND DIRECTION BREAKOUT
WEATHER BY HOUR - MARCH 23, 2013
[ °C ]   °F
Local TimeTemperatureDewpointHumidityBarometerVisibilityWind DirectionWind SpeedGust SpeedPrecipitationEventsConditions
12:35 AM45.0 °F27.3 °F50 %30.06 in10.0 miWNW (290°)5.8 mphClear
12:55 AM44.6 °F26.6 °F49 %30.06 in10.0 miWest (270°)3.5 mphClear
1:15 AM43.3 °F27.0 °F52 %30.06 in10.0 miWest (280°)4.6 mphClear
1:35 AM42.6 °F26.2 °F52 %30.06 in10.0 miCalmClear
1:55 AM41.0 °F27.9 °F60 %30.06 in10.0 miCalmClear
2:15 AM40.3 °F27.5 °F60 %30.06 in10.0 miWest (280°)3.5 mphClear
2:35 AM42.1 °F25.2 °F51 %30.05 in10.0 miCalmClear
2:55 AM40.1 °F27.0 °F59 %30.06 in10.0 miWNW (290°)3.5 mphClear
3:15 AM39.6 °F27.3 °F62 %30.04 in10.0 miCalmClear
3:35 AM38.8 °F25.7 °F59 %30.04 in10.0 miCalmClear
3:55 AM37.4 °F27.5 °F67 %30.03 in10.0 miCalmClear
4:15 AM36.9 °F28.6 °F72 %30.03 in10.0 miCalmClear
4:35 AM36.3 °F29.1 °F75 %30.03 in10.0 miCalmClear
4:55 AM35.4 °F30.4 °F82 %30.03 in10.0 miCalmClear
5:15 AM35.8 °F30.0 °F80 %30.03 in10.0 miCalmClear
5:35 AM35.8 °F29.3 °F77 %30.03 in10.0 miCalmClear
5:55 AM36.3 °F30.0 °F78 %30.03 in10.0 miCalmClear
6:15 AM35.4 °F31.3 °F85 %30.04 in10.0 miCalmClear
6:35 AM35.6 °F30.4 °F81 %30.03 in10.0 miCalmClear
6:55 AM35.1 °F30.2 °F82 %30.04 in10.0 miCalmClear
7:15 AM35.2 °F30.0 °F81 %30.04 in10.0 miCalmClear
7:35 AM35.6 °F31.3 °F84 %30.04 in4.0 miCalmHaze
7:55 AM36.7 °F31.8 °F83 %30.05 in5.0 miCalmHaze
8:15 AM39.0 °F31.6 °F75 %30.05 in10.0 miCalmScattered Clouds
8:35 AM42.1 °F31.8 °F67 %30.04 in10.0 miCalmScattered Clouds
9:15 AM47.1 °F26.4 °F45 %30.03 in10.0 miCalmClear
9:35 AM48.7 °F26.2 °F42 %30.04 in10.0 miNorth (10°)5.8 mphClear
9:55 AM49.5 °F25.2 °F39 %30.04 in10.0 miNNE (20°)3.5 mphScattered Clouds
10:15 AM49.5 °F25.7 °F40 %30.04 in10.0 miCalmScattered Clouds
10:35 AM50.0 °F26.1 °F39 %30.06 in10.0 miCalmScattered Clouds
10:55 AM50.0 °F26.4 °F40 %30.06 in10.0 miCalmScattered Clouds
11:15 AM50.7 °F27.3 °F40 %30.07 in10.0 miSW (230°)5.8 mphScattered Clouds
11:35 AM49.6 °F30.2 °F47 %30.07 in10.0 miWSW (240°)6.9 mphRainLight Rain
11:55 AM48.0 °F34.5 °F60 %30.06 in10.0 miWSW (250°)3.5 mphRainLight Rain
12:15 PM47.5 °F37.2 °F68 %30.06 in10.0 miWest (280°)3.5 mphRainLight Rain
12:35 PM46.9 °F38.5 °F72 %30.05 in10.0 miWest (260°)3.5 mph0.01 inRainLight Rain
12:55 PM46.0 °F36.7 °F70 %30.04 in10.0 miCalm0.01 inRainLight Rain
1:15 PM45.9 °F38.7 °F76 %30.03 in7.0 miCalm0.01 inRainLight Rain
1:35 PM45.5 °F35.4 °F68 %30.04 in10.0 miCalm0.02 inRainRain
1:55 PM45.1 °F39.6 °F81 %30.06 in7.0 miNorth (350°)9.2 mph0.02 inRainLight Rain
2:15 PM45.3 °F39.7 °F81 %30.03 in10.0 miNorth (10°)3.5 mphScattered Clouds
2:35 PM45.9 °F37.8 °F73 %30.02 in10.0 miCalmMostly Cloudy
2:55 PM46.0 °F39.2 °F77 %30.02 in10.0 miNorth (10°)3.5 mphOvercast
3:15 PM46.2 °F38.7 °F75 %29.99 in10.0 miCalmRainLight Rain
3:35 PM47.7 °F40.3 °F76 %29.98 in10.0 miNE (40°)3.5 mphRainLight Rain
3:55 PM48.6 °F38.3 °F68 %29.97 in10.0 miNE (40°)4.6 mphOvercast
4:15 PM47.8 °F39.6 °F73 %29.96 in10.0 miNE (50°)4.6 mphMostly Cloudy
4:35 PM48.6 °F39.4 °F71 %29.95 in10.0 miNE (50°)4.6 mphMostly Cloudy
4:55 PM49.5 °F38.3 °F65 %29.93 in10.0 miEast (100°)4.6 mphScattered Clouds
5:15 PM49.1 °F38.7 °F67 %29.93 in10.0 miESE (120°)6.9 mphClear
5:35 PM48.6 °F39.4 °F71 %29.93 in10.0 miSE (130°)3.5 mphClear
5:55 PM49.1 °F39.4 °F69 %29.93 in10.0 miESE (110°)3.5 mphClear
6:15 PM49.1 °F39.2 °F69 %29.93 in10.0 miEast (90°)5.8 mphClear
6:35 PM49.1 °F39.4 °F69 %29.93 in10.0 miENE (70°)3.5 mphClear
6:55 PM48.4 °F39.2 °F71 %29.94 in10.0 miEast (90°)3.5 mphClear
7:15 PM47.5 °F39.2 °F73 %29.93 in10.0 miENE (60°)3.5 mphClear
7:35 PM46.4 °F39.2 °F76 %29.94 in10.0 miCalmClear
7:55 PM45.3 °F39.6 °F80 %29.96 in10.0 miCalmClear
8:15 PM44.8 °F39.7 °F82 %29.97 in10.0 miCalmScattered Clouds
8:35 PM44.8 °F40.5 °F85 %29.97 in10.0 miNorth (10°)4.6 mphScattered Clouds
8:55 PM44.4 °F39.7 °F84 %29.97 in10.0 miCalmClear
9:15 PM43.7 °F40.1 °F87 %29.98 in10.0 miCalmClear
9:35 PM43.5 °F40.1 °F88 %29.99 in10.0 miCalmClear
9:55 PM42.8 °F40.1 °F90 %29.99 in10.0 miCalmClear
10:15 PM42.8 °F39.9 °F90 %29.98 in10.0 miCalmScattered Clouds
10:35 PM42.3 °F39.4 °F90 %29.98 in10.0 miCalmScattered Clouds
10:55 PM41.9 °F38.8 °F89 %29.95 in10.0 miCalmClear
11:15 PM41.5 °F38.7 °F89 %29.93 in10.0 miNNE (30°)3.5 mphClear
11:35 PM41.4 °F38.7 °F90 %29.92 in10.0 miNNE (30°)3.5 mphClear
11:55 PM41.9 °F38.5 °F88 %29.92 in10.0 miCalmClear
Hourly data recorded from KSUT, located miles away from Boiling Spring Lakes, North Carolina







STORIES FROM OUR PARTNERS